SHT2A EGLL-EGCC

Flight info

Callsign SHT2A
Flight time 0h 32m
Altitude 18000
Route ULTIB T420 ELVOS
Aircraft A320/M-SDE3FGHIKRWXY/S

Departure

Time 2026-05-05 20:28
Airport London Heathrow Airport (EGLL)

Arrival

Time 2026-05-05 21:00
Airport Manchester Airport (EGCC)
Time Latitude Longitude Altitude Speed Heading
2026-05-05 19:54 51.47090 -0.48597 86 ft 0 kts 269°
2026-05-05 20:22 51.47090 -0.48591 86 ft 3 kts 270°
2026-05-05 20:22 51.47089 -0.48556 86 ft 3 kts 277°
2026-05-05 20:22 51.47087 -0.48525 86 ft 2 kts 270°
2026-05-05 20:22 51.47090 -0.48493 86 ft 3 kts 238°
2026-05-05 20:23 51.47103 -0.48473 88 ft 3 kts 187°
2026-05-05 20:23 51.47124 -0.48472 87 ft 3 kts 180°
2026-05-05 20:23 51.47127 -0.48472 88 ft 0 kts 180°
2026-05-05 20:25 51.47120 -0.48472 91 ft 2 kts 180°
2026-05-05 20:25 51.47095 -0.48472 86 ft 4 kts 179°
2026-05-05 20:25 51.47056 -0.48471 89 ft 7 kts 180°
2026-05-05 20:25 51.47001 -0.48471 88 ft 9 kts 180°
2026-05-05 20:26 51.46930 -0.48471 86 ft 10 kts 180°
2026-05-05 20:26 51.46850 -0.48470 86 ft 13 kts 180°
2026-05-05 20:26 51.46777 -0.48479 86 ft 11 kts 201°
2026-05-05 20:26 51.46740 -0.48587 86 ft 13 kts 263°
2026-05-05 20:27 51.46719 -0.48717 87 ft 13 kts 224°
2026-05-05 20:27 51.46658 -0.48748 86 ft 14 kts 191°
2026-05-05 20:27 51.46553 -0.48781 86 ft 16 kts 181°
2026-05-05 20:27 51.46480 -0.48654 86 ft 18 kts 94°
2026-05-05 20:28 51.46480 -0.48275 88 ft 65 kts 89°
2026-05-05 20:28 51.46484 -0.47196 89 ft 125 kts 89°
2026-05-05 20:28 51.46487 -0.45556 183 ft 160 kts 86°
2026-05-05 20:28 51.46490 -0.43828 891 ft 154 kts 87°
2026-05-05 20:29 51.46529 -0.42107 1490 ft 159 kts 80°
2026-05-05 20:29 51.46960 -0.40373 1773 ft 180 kts 54°
2026-05-05 20:29 51.47824 -0.38725 2053 ft 206 kts 50°
2026-05-05 20:29 51.48801 -0.36869 2472 ft 230 kts 50°
2026-05-05 20:30 51.49879 -0.34809 3063 ft 247 kts 50°
2026-05-05 20:30 51.50995 -0.32664 3979 ft 252 kts 50°
2026-05-05 20:30 51.52093 -0.30437 4924 ft 257 kts 57°
2026-05-05 20:30 51.52798 -0.27759 5818 ft 264 kts 70°
2026-05-05 20:31 51.53555 -0.25073 6671 ft 267 kts 52°
2026-05-05 20:31 51.54943 -0.23095 7482 ft 270 kts 26°
2026-05-05 20:31 51.56748 -0.22339 8306 ft 272 kts 358°
2026-05-05 20:31 51.58627 -0.22936 9169 ft 275 kts 344°
2026-05-05 20:32 51.60500 -0.23648 10091 ft 278 kts 347°
2026-05-05 20:32 51.62354 -0.24591 10846 ft 282 kts 334°
2026-05-05 20:32 51.64149 -0.26108 11185 ft 303 kts 330°
2026-05-05 20:32 51.66047 -0.27855 11399 ft 325 kts 329°
2026-05-05 20:33 51.68050 -0.29774 11932 ft 334 kts 329°
2026-05-05 20:33 51.70051 -0.31722 12603 ft 339 kts 328°
2026-05-05 20:33 51.72080 -0.33708 13297 ft 343 kts 328°
2026-05-05 20:33 51.74135 -0.35717 13990 ft 347 kts 328°
2026-05-05 20:34 51.76215 -0.37746 14612 ft 351 kts 328°
2026-05-05 20:34 51.78316 -0.39782 15202 ft 354 kts 328°
2026-05-05 20:34 51.80448 -0.41841 15779 ft 358 kts 328°
2026-05-05 20:34 51.82600 -0.43920 16372 ft 363 kts 328°
2026-05-05 20:35 51.84778 -0.46030 16941 ft 367 kts 327°
2026-05-05 20:35 51.86976 -0.48170 17551 ft 371 kts 327°
2026-05-05 20:35 51.89200 -0.50341 17927 ft 375 kts 327°
2026-05-05 20:35 51.91455 -0.52542 17999 ft 385 kts 328°
2026-05-05 20:36 51.93775 -0.54804 18001 ft 392 kts 328°
2026-05-05 20:36 51.96116 -0.57085 17996 ft 393 kts 328°
2026-05-05 20:36 51.98462 -0.59371 17995 ft 393 kts 328°
2026-05-05 20:36 52.00809 -0.61657 17995 ft 393 kts 327°
2026-05-05 20:37 52.03154 -0.63948 17983 ft 393 kts 327°
2026-05-05 20:37 52.05498 -0.66242 17985 ft 394 kts 327°
2026-05-05 20:37 52.07872 -0.68573 17982 ft 395 kts 327°
2026-05-05 20:37 52.10221 -0.70886 17990 ft 395 kts 327°
2026-05-05 20:38 52.12570 -0.73202 17991 ft 395 kts 327°
2026-05-05 20:38 52.14922 -0.75518 17993 ft 395 kts 327°
2026-05-05 20:38 52.17273 -0.77839 17995 ft 395 kts 327°
2026-05-05 20:38 52.19623 -0.80166 18008 ft 395 kts 327°
2026-05-05 20:39 52.21972 -0.82496 18006 ft 395 kts 327°
2026-05-05 20:39 52.24321 -0.84830 18008 ft 395 kts 327°
2026-05-05 20:39 52.26671 -0.87164 18010 ft 395 kts 327°
2026-05-05 20:39 52.29022 -0.89497 18022 ft 395 kts 327°
2026-05-05 20:40 52.31373 -0.91829 18023 ft 395 kts 327°
2026-05-05 20:40 52.33723 -0.94160 18029 ft 395 kts 327°
2026-05-05 20:40 52.36070 -0.96496 18029 ft 395 kts 327°
2026-05-05 20:40 52.38415 -0.98835 18032 ft 395 kts 327°
2026-05-05 20:41 52.40758 -1.01176 18038 ft 394 kts 327°
2026-05-05 20:41 52.43091 -1.03513 18041 ft 393 kts 326°
2026-05-05 20:41 52.45422 -1.05855 18043 ft 393 kts 326°
2026-05-05 20:41 52.47750 -1.08194 18045 ft 392 kts 327°
2026-05-05 20:42 52.50074 -1.10532 18048 ft 392 kts 326°
2026-05-05 20:42 52.52403 -1.12878 18055 ft 392 kts 326°
2026-05-05 20:42 52.54724 -1.15218 18054 ft 391 kts 326°
2026-05-05 20:42 52.57039 -1.17551 18055 ft 391 kts 326°
2026-05-05 20:43 52.59358 -1.19887 18053 ft 391 kts 326°
2026-05-05 20:43 52.61681 -1.22226 18051 ft 391 kts 326°
2026-05-05 20:43 52.63998 -1.24564 18050 ft 390 kts 326°
2026-05-05 20:43 52.66311 -1.26911 18049 ft 390 kts 326°
2026-05-05 20:44 52.68621 -1.29262 18049 ft 390 kts 326°
2026-05-05 20:44 52.70964 -1.31642 18048 ft 390 kts 326°
2026-05-05 20:44 52.73272 -1.33987 17996 ft 387 kts 326°
2026-05-05 20:44 52.75542 -1.36299 17654 ft 378 kts 326°
2026-05-05 20:45 52.79911 -1.40766 16923 ft 361 kts 326°
2026-05-05 20:45 52.82031 -1.42933 16558 ft 354 kts 326°
2026-05-05 20:45 52.84105 -1.45050 16197 ft 347 kts 326°
2026-05-05 20:46 52.86147 -1.47138 15838 ft 344 kts 326°
2026-05-05 20:46 52.88174 -1.49218 15486 ft 342 kts 326°
2026-05-05 20:46 52.90185 -1.51286 15136 ft 339 kts 327°
2026-05-05 20:46 52.92180 -1.53342 14788 ft 336 kts 326°
2026-05-05 20:47 52.94150 -1.55374 14448 ft 332 kts 327°
2026-05-05 20:47 52.96109 -1.57397 14110 ft 331 kts 327°
2026-05-05 20:47 52.98057 -1.59408 13763 ft 330 kts 327°
2026-05-05 20:47 53.00000 -1.61417 13390 ft 328 kts 327°
2026-05-05 20:48 53.01925 -1.63408 13013 ft 324 kts 327°
2026-05-05 20:48 53.03829 -1.65377 12643 ft 319 kts 327°
2026-05-05 20:48 53.05559 -1.67506 12282 ft 300 kts 316°
2026-05-05 20:48 53.06935 -1.69986 11971 ft 285 kts 310°
2026-05-05 20:49 53.08215 -1.72491 11662 ft 284 kts 310°
2026-05-05 20:49 53.09488 -1.74963 11359 ft 280 kts 311°
2026-05-05 20:49 53.10756 -1.77412 11060 ft 279 kts 311°
2026-05-05 20:49 53.12024 -1.79857 10767 ft 280 kts 311°
2026-05-05 20:50 53.13290 -1.82303 10467 ft 278 kts 311°
2026-05-05 20:50 53.14126 -1.83922 10284 ft 278 kts 311°
2026-05-05 20:50 53.15804 -1.87179 9896 ft 276 kts 311°
2026-05-05 20:50 53.17044 -1.89594 9570 ft 273 kts 311°
2026-05-05 20:51 53.18272 -1.91986 9244 ft 270 kts 311°
2026-05-05 20:51 53.19481 -1.94345 8919 ft 263 kts 311°
2026-05-05 20:51 53.20639 -1.96611 8616 ft 251 kts 311°
2026-05-05 20:51 53.21748 -1.98784 8282 ft 243 kts 311°
2026-05-05 20:52 53.22812 -2.00954 7919 ft 240 kts 305°
2026-05-05 20:52 53.23553 -2.03450 7567 ft 242 kts 289°
2026-05-05 20:52 53.23851 -2.06208 7205 ft 242 kts 273°
2026-05-05 20:52 53.23841 -2.09033 6860 ft 245 kts 271°
2026-05-05 20:53 53.23828 -2.11890 6514 ft 247 kts 270°
2026-05-05 20:53 53.23815 -2.14757 6142 ft 245 kts 270°
2026-05-05 20:53 53.23777 -2.17544 5774 ft 236 kts 263°
2026-05-05 20:53 53.23306 -2.20132 5407 ft 234 kts 248°
2026-05-05 20:54 53.22665 -2.22627 5069 ft 234 kts 246°
2026-05-05 20:54 53.22014 -2.25127 4817 ft 235 kts 246°
2026-05-05 20:54 53.21366 -2.27627 4544 ft 235 kts 246°
2026-05-05 20:54 53.20718 -2.30143 4300 ft 237 kts 246°
2026-05-05 20:55 53.20070 -2.32687 4033 ft 239 kts 246°
2026-05-05 20:55 53.19475 -2.35259 3767 ft 237 kts 258°
2026-05-05 20:55 53.19491 -2.37956 3512 ft 232 kts 288°
2026-05-05 20:55 53.20285 -2.40219 3256 ft 224 kts 314°
2026-05-05 20:56 53.21020 -2.41508 3069 ft 221 kts 319°
2026-05-05 20:56 53.22162 -2.43133 2808 ft 217 kts 327°
2026-05-05 20:56 53.23453 -2.44332 2577 ft 207 kts 347°
2026-05-05 20:56 53.24830 -2.44742 2505 ft 190 kts 360°
2026-05-05 20:57 53.26474 -2.44415 2507 ft 175 kts 25°
2026-05-05 20:57 53.27207 -2.43826 2495 ft 172 kts 36°
2026-05-05 20:57 53.28081 -2.42529 2370 ft 167 kts 52°
2026-05-05 20:57 53.28810 -2.41026 2164 ft 165 kts 52°
2026-05-05 20:58 53.29534 -2.39541 1946 ft 164 kts 53°
2026-05-05 20:58 53.30251 -2.38066 1718 ft 160 kts 52°
2026-05-05 20:58 53.30915 -2.36701 1517 ft 143 kts 52°
2026-05-05 20:58 53.31517 -2.35461 1313 ft 134 kts 51°
2026-05-05 20:59 53.32096 -2.34267 1116 ft 132 kts 51°
2026-05-05 20:59 53.32666 -2.33094 932 ft 129 kts 51°
2026-05-05 20:59 53.33220 -2.31918 737 ft 128 kts 52°
2026-05-05 20:59 53.33776 -2.30756 565 ft 127 kts 50°
2026-05-05 21:00 53.34350 -2.29608 383 ft 128 kts 51°
2026-05-05 21:00 53.34911 -2.28459 271 ft 127 kts 50°
2026-05-05 21:00 53.35409 -2.27427 244 ft 88 kts 50°
2026-05-05 21:00 53.35632 -2.27033 259 ft 25 kts 20°
2026-05-05 21:01 53.35760 -2.26970 261 ft 18 kts 14°
2026-05-05 21:01 53.35835 -2.26984 256 ft 9 kts 342°
2026-05-05 21:01 53.35888 -2.26957 255 ft 5 kts 46°
2026-05-05 21:01 53.35910 -2.26896 255 ft 7 kts 66°
2026-05-05 21:02 53.35926 -2.26812 256 ft 2 kts 73°
2026-05-05 21:02 53.35926 -2.26811 256 ft 0 kts 73°
2026-05-05 21:03 53.35926 -2.26810 256 ft 1 kts 73°
2026-05-05 21:03 53.35946 -2.26744 256 ft 8 kts 59°
2026-05-05 21:03 53.35983 -2.26656 256 ft 10 kts 53°
2026-05-05 21:03 53.36021 -2.26592 256 ft 8 kts 29°
2026-05-05 21:04 53.36078 -2.26572 255 ft 9 kts 16°
2026-05-05 21:04 53.36129 -2.26507 255 ft 8 kts 38°
2026-05-05 21:04 53.36181 -2.26519 255 ft 5 kts 322°
2026-05-05 21:04 53.36190 -2.26532 255 ft 0 kts 320°